Regional Weather Roundup
Issued by NWS

Home | Current Version | Previous Version | Text Only | Print | Product List | Glossary On
Versions: 1 2 3 4 5 6 7 8 9 10 11 12 13 14 15 16 17 18 19 20 21 22 23 24 25 26 27 28 29 30 31 32 33 34 35 36 37 38 39 40 41 42 43 44 45 46 47 48 49 50
000
ASUS44 KBMX 230510
RWRAL

ALABAMA REGIONAL WEATHER ROUNDUP
NATIONAL WEATHER SERVICE BIRMINGHAM AL
1100 PM CST SAT NOV 22 2014

NOTE: "FAIR" INDICATES FEW OR NO CLOUDS BELOW 12,000 FEET
WITH NO SIGNIFICANT WEATHER AND/OR OBSTRUCTIONS TO VISIBILITY.

THE REMARK "TC" DENOTES TEMPERATURE IN DEGREES CELSIUS.

ALZ001>011-014-016>018-020-230600-
NORTH ALABAMA

CITY           SKY/WX    TMP DP  RH WIND       PRES   REMARKS
MUSCLE SHOALS  CLOUDY    59  46  62 SE6       30.07F
HUNTSVILLE     CLOUDY    58  40  51 SE9       30.10F
DECATUR        CLOUDY    58  42  55 SE9       30.10F
HALEYVILLE     CLOUDY    58  51  77 VRB7      30.09F
GADSDEN        CLOUDY    57  37  47 E6        30.13F
$$

ALZ012-013-022-023-030>036-040>044-230600-
WEST CENTRAL ALABAMA

CITY           SKY/WX    TMP DP  RH WIND       PRES   REMARKS
TUSCALOOSA     CLOUDY    61  52  72 E6        30.06F
$$

ALZ015-024>027-033>036-040>044-230600-
CENTRAL ALABAMA

CITY           SKY/WX    TMP DP  RH WIND       PRES   REMARKS
BIRMINGHAM     CLOUDY    58  48  69 SE15G22   30.11F
MONTGOMERY     LGT RAIN  57  54  88 E16       30.08F
SHELBY CO ARPT CLOUDY    58  51  78 MISG      30.08F
MAXWELL AFB    LGT RAIN  57  53  86 E10       30.09F
GREENVILLE     LGT RAIN  58  56  93 E8G17     30.05F FOG
$$

ALZ019-021-028-029-037-038-045>048-230600-
EAST CENTRAL ALABAMA

CITY           SKY/WX    TMP DP  RH WIND       PRES   REMARKS
ANNISTON       CLOUDY    57  45  64 E14       30.14F
ALEXANDER CITY RAIN      57  50  79 E5        30.13F
AUBURN         CLOUDY    54  48  82 E12G20    30.15F
$$

ALZ051>064-230600-
SOUTHWEST ALABAMA

CITY           SKY/WX    TMP DP  RH WIND       PRES   REMARKS
MOBILE         CLOUDY    59  59 100 E16       29.96F
BROOKLEY FIELD CLOUDY    62  59  90 E12       29.98F
EVERGREEN      LGT RAIN  61  58  90 E15       30.02F
$$

ALZ049-050-065>069-230600-
SOUTHEAST ALABAMA

CITY           SKY/WX    TMP DP  RH WIND       PRES   REMARKS
DOTHAN         LGT RAIN  59  58  96 E7        30.11F
OZARK          CLOUDY    60  58  96 E10       30.06F
TROY           LGT RAIN  57  55  93 NE7       30.09F
EUFAULA        LGT RAIN  59  54  83 E8        30.10F
$$


USA.gov is the U.S. government's official web portal to all federal, state and local government web resources and services.